Thomasville, PA

4:14 AM EST on February 21, 2017 (GMT -0500)
York

Weather History for KTHV - October, 2011

Change the Weather History Date:

Saturday, October 1, 2011

  Actual Average Record
Temperature  
Mean Temperature 50 °F -  
Max Temperature 54 °F 0 °F 81 °F (2002)
Min Temperature 46 °F - 34 °F (1997)
Degree Days  
Heating Degree Days 15    
Moisture  
Dew Point 47 °F    
Average Humidity 88    
Maximum Humidity 96    
Minimum Humidity 71    
Precipitation  
Precipitation 0.67 in - - ()
Sea Level Pressure  
Sea Level Pressure 29.78 in    
Wind  
Wind Speed 6 mph (WNW)    
Max Wind Speed 13 mph    
Max Gust Speed 18 mph    
Visibility 6 miles    
Events Rain    
Averages and records for this station are not official NWS values.
T = Trace of Precipitation, MM = Missing Value Source: NWS Daily Summary

Daily Weather History Graph

Daily Weather History Graph

Search for Another Location

Airport or City:

Trip Planner

Search our weather history database for the weather conditions in past years. The results will help you decide how hot, cold, wet, or windy it might be!

Date:

Astronomy

Oct. 01, 2011 Rise Set
Actual Time 7:03 AM EDT 6:50 PM EDT
Civil Twilight 6:36 AM EDT 7:17 PM EDT
Nautical Twilight 6:05 AM EDT 7:48 PM EDT
Astronomical Twilight 5:33 AM EDT 8:20 PM EDT
Moon 12:06 PM EDT (10/1) 9:45 PM EDT (10/1)
Length of Visible Light 12h 40m
Length of Day
11h 46m
Waxing Crescent, 24% of the Moon is Illuminated
Oct 1
Waxing Crescent
Oct 3
First Quarter
Oct 11
Full
Oct 19
Last Quarter
Oct 26
New

Hourly Weather History & Observations

Time (EDT) Temp. Windchill Dew Point Humidity Pressure Visibility Wind Dir Wind Speed Gust Speed Precip Events Conditions
12:53 AM 54.0 °F - 50.0 °F 86% 29.70 in 10.0 mi Calm Calm - N/A   Partly Cloudy
1:53 AM 54.0 °F - 50.0 °F 86% 29.70 in 10.0 mi West 4.6 mph - N/A   Clear
2:53 AM 54.0 °F - 48.9 °F 83% 29.71 in 10.0 mi West 4.6 mph - N/A   Mostly Cloudy
3:53 AM 53.1 °F - 46.0 °F 77% 29.71 in 10.0 mi WNW 6.9 mph - N/A   Mostly Cloudy
5:53 AM 52.0 °F - 44.1 °F 74% 29.73 in 10.0 mi WNW 9.2 mph - N/A   Overcast
6:53 AM 52.0 °F - 43.0 °F 71% 29.74 in 10.0 mi WNW 8.1 mph - N/A   Overcast
8:53 AM 52.0 °F - 43.0 °F 71% 29.77 in 10.0 mi WNW 8.1 mph - N/A   Overcast
9:22 AM 51.8 °F - 44.6 °F 76% 29.77 in 10.0 mi WNW 8.1 mph - N/A   Overcast
10:53 AM 51.1 °F - 46.0 °F 83% 29.80 in 10.0 mi WNW 9.2 mph - N/A   Overcast
11:53 AM 51.1 °F - 46.9 °F 86% 29.80 in 10.0 mi WNW 6.9 mph - 0.00 in Rain Light Rain
12:53 PM 53.1 °F - 46.0 °F 77% 29.79 in 10.0 mi WNW 10.4 mph - 0.00 in   Overcast
1:53 PM 54.0 °F - 46.0 °F 75% 29.77 in 10.0 mi WNW 8.1 mph - N/A   Overcast
2:53 PM 53.1 °F - 46.0 °F 77% 29.77 in 10.0 mi WNW 5.8 mph - 0.00 in Rain Light Rain
3:53 PM 51.1 °F - 48.0 °F 89% 29.78 in 6.0 mi WNW 5.8 mph - 0.02 in Rain Light Rain
4:41 PM 50.0 °F - 48.2 °F 94% 29.77 in 2.0 mi West 5.8 mph - 0.07 in Rain Heavy Rain
4:53 PM 50.0 °F - 48.0 °F 93% 29.78 in 2.5 mi West 5.8 mph - 0.10 in Rain Rain
5:09 PM 50.0 °F - 48.2 °F 94% 29.77 in 3.0 mi West 4.6 mph - 0.03 in Rain Rain
5:13 PM 50.0 °F - 48.2 °F 94% 29.77 in 2.0 mi West 5.8 mph - 0.05 in Rain Heavy Rain
5:20 PM 50.0 °F - 48.2 °F 94% 29.77 in 3.0 mi West 4.6 mph - 0.05 in Rain Light Rain
5:35 PM 50.0 °F - 48.2 °F 94% 29.78 in 2.0 mi West 4.6 mph - 0.08 in Rain Heavy Rain
5:42 PM 50.0 °F - 48.2 °F 94% 29.78 in 3.0 mi West 5.8 mph - 0.09 in Rain Rain
5:47 PM 50.0 °F - 48.2 °F 94% 29.78 in 2.5 mi West 4.6 mph - 0.11 in Rain Rain
5:53 PM 50.0 °F - 48.0 °F 93% 29.79 in 2.0 mi West 3.5 mph - 0.12 in Rain Rain
6:09 PM 50.0 °F - 48.2 °F 94% 29.78 in 6.0 mi West 6.9 mph - 0.02 in Rain Light Rain
6:23 PM 50.0 °F - 48.2 °F 94% 29.78 in 3.0 mi WNW 4.6 mph - 0.03 in Rain Light Rain
6:32 PM 50.0 °F - 48.2 °F 94% 29.79 in 4.0 mi WNW 3.5 mph - 0.04 in Rain Rain
6:53 PM 50.0 °F - 48.9 °F 96% 29.81 in 4.0 mi WNW 4.6 mph - 0.08 in Rain Rain
7:04 PM 50.0 °F - 48.2 °F 94% 29.79 in 2.0 mi West 4.6 mph - 0.06 in Rain Heavy Rain
7:18 PM 50.0 °F - 48.2 °F 94% 29.79 in 3.0 mi NW 10.4 mph 16.1 mph 0.12 in Rain Heavy Rain
7:53 PM 50.0 °F - 46.9 °F 89% 29.81 in 10.0 mi NW 6.9 mph - 0.13 in Rain Light Rain
8:43 PM 48.2 °F - 44.6 °F 87% 29.80 in 4.0 mi North 12.7 mph 18.4 mph 0.04 in Rain Rain
8:53 PM 48.0 °F - 45.0 °F 89% 29.81 in 7.0 mi NNW 11.5 mph - 0.05 in Rain Light Rain
9:16 PM 48.2 °F - 44.6 °F 87% 29.81 in 6.0 mi NNW 8.1 mph - 0.04 in Rain Rain
9:53 PM 46.9 °F - 45.0 °F 93% 29.81 in 3.0 mi NNW 5.8 mph - 0.13 in Rain Rain
10:53 PM 46.9 °F - 44.1 °F 90% 29.81 in 9.0 mi North 6.9 mph - 0.04 in Rain Light Rain
11:25 PM 46.4 °F 45.2 °F 44.6 °F 93% 29.79 in 8.0 mi NNW 3.5 mph - 0.00 in   Overcast
11:53 PM 46.9 °F - 44.1 °F 90% 29.79 in 9.0 mi NNW 5.8 mph - 0.00 in   Overcast